Theta_e
321 321 320 320 319 319 319 319 318 319 319 320 321 321 321 320 319 319 317 317 318 316 315 315 316 317 317 326 334 333 344 349 348 348 353 350 352 353 354 347 344 347 344 342 343 342 343
319 319 318 318 317 317 317 317 317 317 317 317 320 321 321 320 319 320 319 317 317 315 314 315 316 317 317 332 334 334 344 349 346 350 344 348 344 344 348 343 345 344 344 345 343 344 343
316 316 315 315 314 314 315 315 315 315 315 315 317 320 321 321 320 320 319 317 316 314 314 315 316 317 327 332 332 333 338 343 346 343 344 344 341 346 347 349 346 344 345 345 345 345 345
312 312 312 312 312 312 312 313 313 313 314 314 315 318 321 321 320 318 315 317 316 315 314 315 316 317 332 330 332 333 337 343 344 340 341 345 341 341 343 348 349 350 347 353 347 346 347
310 309 309 309 310 310 310 311 311 312 312 313 314 316 320 322 321 318 315 315 316 315 315 315 318 320 331 328 329 330 337 340 340 341 341 344 339 342 349 348 352 350 353 352 351 345 346
309 309 309 309 309 309 310 310 310 311 311 312 312 314 319 321 321 323 322 316 315 315 314 316 329 329 327 330 330 330 335 339 340 343 345 345 340 348 349 349 356 350 348 349 352 348 345
308 308 309 309 309 310 310 310 310 310 311 311 312 313 317 321 321 324 323 326 326 323 324 324 326 327 327 329 331 329 332 338 340 344 347 344 341 346 347 347 347 345 344 349 351 350 349
308 308 309 309 309 310 310 310 310 310 311 311 311 312 316 322 321 323 323 333 331 331 330 324 325 324 328 329 330 330 330 338 343 346 345 346 341 342 346 347 345 342 343 350 348 346 349
308 308 309 309 309 310 310 310 310 311 311 311 311 312 313 322 322 323 324 330 329 330 331 329 325 325 327 327 328 330 329 336 342 345 344 346 343 340 338 340 341 340 347 348 350 346 347
307 308 308 309 309 310 310 310 310 311 311 311 311 312 313 323 322 326 327 329 329 329 333 334 329 326 327 327 328 329 330 331 335 336 339 340 340 338 338 336 337 340 342 340 341 344 350
307 307 308 309 309 310 310 310 310 311 311 311 311 312 312 322 330 329 332 330 329 329 340 333 329 327 328 328 330 328 330 329 332 333 334 336 335 335 335 337 337 337 337 339 341 342 341
306 307 307 309 309 310 310 310 310 311 311 311 311 312 312 314 325 327 329 329 329 332 338 331 328 329 329 328 331 329 328 328 329 330 331 331 332 332 332 335 335 335 335 335 338 339 339
306 307 307 308 309 310 310 310 310 311 311 311 312 312 312 316 327 326 326 330 333 335 336 334 330 330 330 330 331 330 330 330 329 328 329 330 329 331 329 331 332 334 334 337 340 340 340
306 306 307 308 309 310 310 310 310 311 311 311 313 313 313 314 324 326 328 332 337 339 337 334 332 330 330 332 331 330 331 330 329 329 329 330 330 330 330 329 331 333 334 335 342 339 338
306 306 307 308 309 309 309 309 310 311 312 312 317 317 313 315 321 326 330 335 338 338 337 335 333 331 331 332 332 332 331 332 332 330 330 332 332 331 330 329 330 332 334 335 334 335 336
305 306 306 307 308 309 309 309 310 311 312 313 322 330 328 324 320 328 333 334 336 336 335 335 335 334 334 333 333 333 332 333 333 333 331 331 333 333 332 330 329 329 332 333 334 336 338
305 305 306 307 308 308 308 309 310 311 312 317 326 332 329 323 325 330 335 335 335 335 333 334 334 335 335 335 333 332 333 333 332 333 332 332 332 334 333 332 331 330 329 330 331 333 336
304 305 305 306 307 308 308 309 311 311 312 323 329 333 330 325 327 329 333 334 333 335 332 332 333 335 336 336 335 334 332 334 332 331 332 332 332 333 334 334 334 333 334 332 331 336 334
304 304 305 305 306 307 308 308 311 313 313 315 330 333 330 327 329 330 330 332 333 333 333 332 333 334 334 335 337 336 335 335 334 333 336 335 334 332 333 334 334 333 333 333 333 334 336
304 303 304 305 306 306 307 308 311 313 313 315 329 331 329 327 328 333 336 334 333 329 329 330 332 333 333 335 335 336 337 336 334 334 333 334 334 335 334 335 335 337 335 335 335 334 334
304 303 304 304 305 306 307 308 310 313 317 322 328 331 332 333 330 331 333 332 333 331 329 329 330 331 332 334 334 336 336 336 335 332 334 334 335 334 334 335 335 336 336 337 336 334 334
305 303 303 304 305 306 307 308 310 313 322 324 326 327 327 330 330 331 325 331 331 331 331 330 329 330 330 331 334 337 337 337 338 336 336 336 338 336 336 336 336 337 337 337 336 336 336
306 304 303 304 305 306 306 308 310 313 319 323 322 324 324 326 326 327 328 329 330 329 328 326 329 329 330 330 329 330 331 332 334 336 337 338 338 339 339 337 337 337 336 336 336 336 335
306 305 304 303 304 305 306 307 309 311 318 322 321 322 325 325 323 325 325 326 327 326 326 325 324 325 327 326 325 325 324 325 326 329 329 331 333 334 336 335 337 335 334 333 332 332 334
306 306 305 304 304 305 306 306 308 309 313 321 321 323 325 329 324 324 323 321 321 322 322 321 321 323 323 322 321 321 321 323 324 324 324 325 327 329 331 332 331 330 329 329 329 330 337
304 306 305 304 304 305 305 306 307 309 309 318 321 320 324 326 326 324 323 323 324 325 325 324 323 324 322 323 323 324 325 326 327 327 326 325 328 327 327 327 328 328 329 331 331 332 335
303 306 305 304 304 304 305 306 306 309 310 317 320 315 323 324 322 323 324 326 323 324 325 327 325 324 324 325 325 325 325 326 326 326 327 329 330 328 327 327 326 329 330 330 332 335 332
303 306 304 303 303 304 305 306 306 309 310 315 321 318 319 324 323 320 320 323 323 321 324 327 326 324 324 325 325 327 327 327 328 328 328 329 329 329 330 330 329 331 332 336 333 331 329
305 305 304 303 303 304 304 305 306 308 310 312 319 319 317 321 325 320 319 320 322 323 324 323 324 329 327 330 329 329 329 328 328 328 327 328 328 328 329 331 329 328 330 329 329 328 327
Wind_Speed
15 15 15 15 14 14 14 14 13 13 13 12 12 12 11 9 5 3 2 2 3 4 5 6 6 6 5 7 8 4 8 8 6 4 9 13 34 23 4 4 7 10 12 18 14 15 14
16 16 16 16 16 15 15 14 14 14 13 12 11 11 10 9 6 3 2 1 3 4 5 6 6 6 6 11 1 5 8 8 7 6 12 12 12 10 14 5 9 8 13 17 17 9 9
16 16 16 16 16 16 16 15 15 15 14 13 12 11 10 8 6 3 1 2 3 4 5 6 5 6 7 11 3 6 10 11 8 9 15 7 9 14 18 9 11 4 7 11 14 13 6
17 17 17 17 17 17 17 17 16 15 15 13 12 11 9 7 5 3 0 2 3 4 5 6 6 6 8 7 6 10 11 12 11 11 11 11 10 7 12 7 17 15 14 9 6 9 10
18 17 17 17 18 18 18 17 17 16 15 14 12 10 9 6 4 1 1 3 4 4 5 7 4 5 12 5 9 11 13 12 11 11 12 13 10 10 14 13 9 3 13 14 18 7 15
18 18 18 18 18 18 18 18 17 16 15 14 12 10 8 6 3 2 3 4 5 6 4 7 4 7 15 11 9 10 12 11 11 10 12 14 16 7 9 11 6 7 7 7 8 2 10
19 19 19 19 19 18 19 19 19 17 16 14 12 10 7 4 2 5 6 1 2 3 13 13 14 10 6 6 9 9 12 11 10 13 12 16 11 7 12 17 16 9 2 1 10 10 9
19 19 19 19 19 19 20 20 20 19 17 15 12 9 6 4 3 7 8 6 6 6 7 22 12 18 3 9 11 12 13 12 13 13 15 14 12 10 21 23 13 11 6 5 5 2 5
19 19 19 19 20 20 21 21 21 20 18 15 12 9 6 3 5 9 11 11 6 7 9 19 19 15 15 10 15 15 15 16 14 14 16 19 4 5 2 8 9 14 7 7 8 10 6
19 19 19 20 21 21 22 22 22 21 18 16 12 9 5 3 3 5 11 8 6 6 6 14 18 15 17 14 15 14 17 16 11 13 15 12 6 4 8 9 8 4 7 4 9 4 8
20 19 20 20 22 22 23 24 23 22 19 17 13 9 6 10 4 6 2 3 5 3 5 14 17 12 15 16 8 13 11 16 14 12 8 13 7 9 7 11 10 10 6 11 11 10 16
21 20 20 20 22 24 24 25 25 23 21 17 14 9 7 9 11 9 1 4 3 6 6 10 11 12 16 19 8 11 12 14 10 14 13 16 15 6 11 9 7 8 7 12 14 14 9
21 20 20 21 22 24 26 26 26 24 22 17 14 8 10 12 8 8 5 6 6 9 11 12 16 15 16 15 15 10 11 12 12 10 14 16 16 15 8 11 7 9 13 10 10 9 5
22 20 20 21 22 24 26 27 26 25 23 16 10 5 11 16 7 5 7 8 8 13 9 7 12 15 15 16 16 12 13 13 16 16 14 12 12 21 15 11 10 11 13 8 11 9 2
22 22 21 21 22 25 27 28 27 25 22 15 4 1 6 9 15 7 11 10 10 8 13 2 9 14 16 16 8 14 14 14 14 15 14 10 6 11 11 11 11 12 9 13 12 11 8
22 22 21 22 22 24 27 29 28 24 20 12 4 7 7 7 11 10 9 16 17 8 8 8 11 9 12 15 13 10 12 11 14 13 12 9 6 7 8 3 11 13 12 9 7 4 7
22 22 22 21 22 24 26 28 29 24 17 6 6 7 9 9 12 13 11 16 18 5 4 8 13 16 9 12 16 13 9 10 8 8 8 11 10 3 9 8 12 8 10 11 13 10 10
22 22 22 22 22 23 25 26 28 26 15 5 8 5 8 11 12 14 12 18 14 4 3 7 8 13 15 10 15 12 15 8 13 6 5 11 12 12 14 11 14 14 12 12 9 12 7
22 22 22 22 22 22 23 24 25 26 21 14 7 10 5 13 8 11 17 18 4 7 6 10 7 8 10 10 8 12 8 11 5 4 4 9 7 11 13 13 14 13 12 11 14 12 11
21 22 22 22 22 22 22 23 22 20 16 11 7 4 8 12 19 15 12 14 11 6 11 7 11 10 6 10 12 6 11 10 7 3 9 3 14 15 12 13 16 10 11 8 14 11 12
21 21 21 22 22 21 21 22 21 17 10 6 6 5 6 1 11 13 14 10 10 9 8 1 8 11 11 12 12 13 13 12 8 9 5 6 15 16 17 21 20 19 16 10 11 11 12
21 21 21 21 21 21 20 21 22 18 8 4 9 8 14 16 5 8 2 8 9 1 3 6 5 14 3 4 10 14 12 6 13 10 8 8 14 14 19 18 21 22 19 18 15 18 16
20 20 21 21 20 20 19 19 21 21 9 6 14 8 10 8 7 8 5 3 4 6 4 5 9 9 6 11 13 13 11 13 12 9 7 10 10 11 16 16 16 20 15 16 20 21 20
19 20 20 20 20 19 18 17 17 17 14 11 13 11 8 10 5 5 4 5 2 7 9 4 3 7 9 12 14 14 16 19 17 15 14 12 11 10 13 13 20 15 18 17 12 14 14
18 19 19 19 19 19 17 15 14 13 10 11 14 8 8 8 7 2 3 4 1 2 6 11 6 4 11 12 7 9 10 13 15 15 15 14 12 12 12 14 18 18 17 14 11 8 14
17 18 18 19 18 18 17 15 12 13 11 5 10 10 6 9 10 9 8 2 9 7 7 7 1 6 8 8 7 8 7 7 4 8 11 12 12 10 12 15 17 10 13 7 6 8 13
16 17 17 17 17 17 16 14 11 10 10 8 6 14 6 13 10 6 6 9 7 8 4 4 1 4 3 5 7 9 10 11 11 11 7 7 7 10 11 13 15 12 14 6 8 3 11
15 16 17 17 16 15 15 12 10 8 9 5 4 14 9 8 6 3 5 6 5 5 7 8 5 7 5 4 5 7 6 6 4 7 7 7 8 9 9 14 13 21 11 6 7 5 7
15 16 16 16 16 15 13 11 9 6 6 3 7 12 11 5 6 4 3 3 1 4 7 4 5 2 9 4 4 4 6 5 6 8 5 6 8 8 6 6 3 13 12 7 10 12 14
Wind_Direction
25 21 20 18 14 11 8 5 4 3 2 0 355 355 359 359 359 342 315 247 221 198 203 206 213 223 235 260 251 221 181 195 219 194 269 279 138 206 113 131 243 286 100 100 96 86 113
20 16 15 12 9 6 3 360 359 359 357 356 354 351 353 355 353 355 310 229 217 192 189 205 212 223 239 258 205 183 189 206 210 242 262 282 347 309 126 172 175 150 109 121 98 122 116
16 15 12 8 4 1 359 357 355 354 353 352 351 347 350 351 347 345 244 203 201 185 190 198 205 228 251 266 205 228 196 217 239 251 288 313 326 19 47 282 253 108 141 134 135 166 112
13 11 8 4 1 0 357 354 353 351 349 347 347 343 344 346 341 329 230 184 177 194 181 199 197 219 263 212 218 220 211 230 246 259 274 300 304 293 157 306 327 44 22 352 250 137 117
12 10 6 3 2 0 356 354 351 349 345 343 342 340 340 340 338 2 91 155 161 180 182 180 176 237 253 239 217 223 212 225 246 263 267 278 290 351 56 42 1 46 167 222 261 159 145
10 8 6 4 4 1 357 354 351 347 344 341 338 336 336 332 330 162 140 141 149 160 183 178 203 245 226 227 204 203 209 219 261 256 257 256 261 124 98 108 239 255 236 124 209 219 196
8 6 4 3 1 360 358 354 350 348 344 340 336 332 329 321 272 185 173 110 206 223 206 202 194 224 148 159 175 212 207 215 242 258 258 248 273 156 145 210 210 233 131 18 145 179 237
4 3 2 0 360 358 355 353 351 347 345 340 334 328 319 298 235 203 206 223 337 331 237 229 266 216 216 195 199 213 201 211 221 243 229 247 242 175 172 208 250 283 208 48 159 245 302
1 360 359 359 358 356 354 353 350 346 342 338 332 322 304 271 234 217 220 267 302 313 268 203 211 219 211 206 231 200 199 213 236 225 260 263 270 340 253 260 239 266 113 172 229 188 194
360 357 356 356 356 354 352 351 349 345 340 335 328 316 292 222 204 226 246 273 274 306 276 178 200 223 199 208 229 221 202 218 232 264 260 287 236 92 291 245 295 332 0 284 280 221 247
358 357 355 354 353 352 351 350 348 344 338 332 323 307 266 203 201 206 93 219 274 253 269 129 174 208 182 203 152 195 193 220 253 229 270 265 232 260 240 266 295 305 38 307 313 276 269
355 354 353 353 352 352 350 349 347 343 337 329 320 296 251 222 228 192 273 261 268 235 242 158 145 187 193 212 194 140 207 222 242 261 270 262 298 305 290 248 273 291 299 253 242 248 272
354 352 351 351 351 351 349 349 347 342 336 329 320 280 229 208 194 229 240 232 222 248 141 151 171 193 206 194 224 173 194 202 222 217 243 240 248 250 217 270 244 240 258 259 229 238 169
354 352 349 349 349 349 349 348 348 344 336 331 319 265 220 203 206 236 205 226 253 258 200 116 167 186 206 202 215 185 203 217 219 241 279 243 232 206 210 222 255 212 260 294 309 333 190
353 351 348 348 347 348 348 347 347 347 337 332 298 273 214 214 204 194 220 224 236 297 3 151 174 187 204 221 215 197 214 224 225 211 256 297 253 124 194 198 225 259 269 289 313 303 275
352 350 347 346 347 348 348 348 347 348 339 330 263 237 216 187 185 195 227 242 260 349 350 328 279 211 234 206 187 226 205 225 235 203 214 282 287 185 188 226 263 263 279 280 213 262 273
352 351 348 346 346 348 350 350 348 350 344 323 271 243 158 171 181 213 228 239 247 179 15 272 277 288 260 264 196 227 216 208 222 198 214 245 250 234 137 215 247 192 237 251 285 303 306
351 349 350 348 347 348 351 353 352 351 356 319 291 266 156 171 198 225 234 243 275 312 147 264 278 292 306 301 279 216 247 333 173 208 253 244 270 252 231 213 209 258 269 199 224 227 266
350 350 349 349 348 348 350 354 357 353 352 345 284 276 176 193 225 227 223 247 212 289 250 264 250 258 298 288 310 311 301 87 83 216 32 345 250 249 256 264 209 216 239 259 284 292 285
350 350 349 350 349 349 350 353 356 355 345 334 293 253 160 212 251 291 288 230 243 178 291 318 296 329 295 267 269 270 290 152 127 66 13 317 270 289 282 296 337 315 203 240 268 259 250
350 351 350 350 350 351 353 353 355 357 345 332 248 307 7 255 219 254 269 314 244 187 197 316 274 252 267 276 262 253 236 262 157 151 224 253 257 277 285 293 301 303 300 280 241 262 269
348 350 351 351 351 351 355 358 358 4 23 7 337 354 340 287 293 323 317 254 276 249 135 294 228 293 327 287 330 343 360 3 315 141 207 240 260 266 275 283 290 289 289 287 281 282 287
347 349 351 351 352 353 355 0 4 12 27 21 349 321 284 296 262 253 289 238 202 341 73 317 335 340 276 20 337 327 321 314 316 331 317 302 313 310 281 289 291 271 265 267 270 274 269
345 346 349 351 352 353 355 358 6 14 30 36 346 327 281 273 245 15 13 0 271 38 318 27 13 302 21 326 311 292 285 279 272 272 273 271 263 275 279 287 264 277 295 303 313 307 325
341 343 344 348 351 352 354 355 359 7 18 34 2 359 321 305 342 346 252 296 36 284 264 263 311 359 327 303 291 259 250 247 258 258 247 251 261 266 263 254 267 276 286 307 314 300 25
338 340 342 345 348 350 352 354 355 358 4 50 15 1 311 292 47 3 319 343 282 222 164 232 345 308 301 270 252 251 262 297 222 207 218 240 239 250 261 270 270 294 359 30 341 239 38
334 337 340 342 345 346 349 353 352 354 3 21 16 350 326 289 55 353 358 349 347 310 303 140 88 266 252 261 256 256 252 240 255 263 242 205 229 260 255 254 261 326 355 8 268 27 24
330 334 337 338 341 342 343 347 348 350 3 24 39 351 7 314 45 17 353 344 328 279 308 46 256 198 248 258 271 268 265 286 316 321 333 306 297 277 258 254 256 13 357 0 41 33 13
329 331 333 335 336 338 339 339 340 342 358 6 353 344 342 281 338 309 279 275 260 340 339 335 352 315 10 308 13 320 309 322 294 282 289 263 269 296 318 340 346 5 45 20 346 340 343